Regional Weather Roundup
Issued by NWS

Home | Current Version | Previous Version | Graphics & Text | Print | Product List | Glossary On
Versions: 1 2 3 4 5 6 7 8 9 10 11 12 13 14 15 16 17 18 19 20 21 22 23 24 25 26 27 28 29 30 31 32 33 34 35 36 37 38 39 40 41 42 43 44 45 46 47 48 49 50
726
ASUS43 KOAX 270402
RWRNE

WEATHER ROUNDUP FOR NEBRASKA
NATIONAL WEATHER SERVICE OMAHA NE
1100 PM CDT FRI MAY 26 2017

NOTES: SATELLITE DATA IS BEING USED TO AUGMENT CLOUD COVER ABOVE
       12000 FEET.
       "FAIR" INDICATES FEW OR NO CLOUDS BELOW 12,000 FEET WITH NO
       SIGNIFICANT WEATHER AND/OR OBSTRUCTIONS TO VISIBILITY.

  * THESE STATIONS DO NOT REPORT WEATHER SUCH AS RAIN...SNOW OR FOG.

NEZ001>004-019>022-054>056-270500-
NEBRASKA PANHANDLE

CITY           SKY/WX    TMP DP  RH WIND       PRES   REMARKS
SCOTTSBLUFF    CLOUDY    50  48  93 N12       29.99S
ALLIANCE       RAIN      49  49 100 N8        30.01R FOG
CHADRON        LGT RAIN  50  48  93 CALM      30.01R
GORDON         RAIN      51  48  90 CALM      30.00R
KIMBALL        DRIZZLE   51  49  93 N7G20     30.00R
SIDNEY         LGT RAIN  52  50  93 NE20      29.96R FOG
$$

NEZ057>060-069>072-079>082-270500-
SOUTHWEST NEBRASKA

CITY           SKY/WX    TMP DP  RH WIND       PRES   REMARKS
NORTH PLATTE   CLOUDY    61  51  70 E9        29.88R
IMPERIAL       CLOUDY    59  50  72 SE18G28   29.88R
LEXINGTON      CLOUDY    64  49  57 SE5       29.90S
MCCOOK         LGT RAIN  61  57  87 W13       29.94R
OGALLALA       CLOUDY    63  52  67 SE10      29.87R HAZE
$$

NEZ005>010-023>029-035>040-094-270500-
NORTH CENTRAL NEBRASKA

CITY           SKY/WX    TMP DP  RH WIND       PRES   REMARKS
VALENTINE      LGT RAIN  62  42  47 NE8       29.93R
AINSWORTH      MOCLDY    58  48  70 NE6       29.94R
BROKEN BOW     CLOUDY    63  46  54 E10       29.90R
O`NEILL        CLOUDY    61  42  49 CALM      29.93R
ORD            CLOUDY    60  45  57 N5        29.89R
THEDFORD       CLOUDY    63  45  52 E9        29.92R
$$

NEZ041-046>049-061>064-073>077-083>087-270500-
SOUTH CENTRAL NEBRASKA

CITY           SKY/WX    TMP DP  RH WIND       PRES   REMARKS
GRAND ISLAND   CLOUDY    63  50  62 N7        29.89R
AURORA         CLOUDY    63  48  57 E6        29.88S
HASTINGS       CLOUDY    66  47  50 CALM      29.90R
HEBRON         CLOUDY    64  51  62 CALM      29.86R
HOLDREGE       CLOUDY    63  49  61 E5        29.90S
KEARNEY *      CLOUDY    63  48  59 N5        29.90S
YORK           CLOUDY    63  48  59 NE7       29.88R
$$

NEZ011>018-030>034-042>045-270500-
NORTHEAST NEBRASKA

CITY           SKY/WX    TMP DP  RH WIND       PRES   REMARKS
NORFOLK        CLEAR     59  44  57 N7        29.89R
ALBION         CLOUDY    61  45  55 N7        29.91R
BLAIR          CLOUDY    66  49  55 N8        29.88R
FREMONT        CLOUDY    67  44  43 NE3       29.89R
TEKAMAH        CLEAR     61  49  64 N6        29.87R
WAYNE          CLEAR     55  45  68 CALM      29.90S
$$

NEZ050>053-065>068-078-088>093-270500-
SOUTHEAST NEBRASKA

CITY           SKY/WX    TMP DP  RH WIND       PRES   REMARKS
LINCOLN        CLOUDY    65  50  58 NE5       29.87R
OMAHA EPPLEY   CLOUDY    61  53  75 N5        29.86S
BEATRICE       CLEAR     69  49  49 E3        29.86R
FALLS CITY     CLEAR     70  53  54 N3        29.84R
NEBRASKA CITY  CLEAR     69  46  43 NE3       29.86R
$$

NEZ044-045-051>053-067-270500-
OMAHA AREA

CITY           SKY/WX    TMP DP  RH WIND       PRES   REMARKS
OMAHA EPPLEY   CLOUDY    61  53  75 N5        29.86S
BLAIR          CLOUDY    66  49  55 N8        29.88R
FREMONT        CLOUDY    67  44  43 NE3       29.89R
MILLARD        CLOUDY    66  55  67 CALM      29.86S
OFFUTT AFB     CLOUDY    61  54  77 CALM      29.85R
WAHOO          FAIR      66  47  49 NE8       29.87S
$$




USA.gov is the U.S. government's official web portal to all federal, state and local government web resources and services.